Wind_Speed
97 100 102 104 106 108 110 112 113 114 115 116 116 114 113 110 107 103 100 96 93 90 88 85 82 79 76 73 70 67 65 62 59 57 54 52 50 48 46 45 43 42 41 41 40 40 39 39 39 39 40 40 41 41 42 42 43 44 45 46 46 47 48 48 49 49 49 50 50 50 50 50 50 50 51 51 52 54 55 56 57 58 60 61 63 65
101 103 105 107 109 110 112 114 115 114 114 113 112 109 106 102 99 95 92 88 85 81 78 75 73 70 66 63 60 58 55 53 51 49 47 45 44 42 41 41 40 39 39 39 38 38 38 38 39 39 39 40 40 41 42 42 43 44 44 45 46 47 47 48 48 49 49 49 49 49 49 48 48 47 47 47 48 49 50 50 51 52 54 55 57 59
104 106 108 110 111 112 113 114 114 113 111 108 105 102 98 94 90 86 83 79 76 72 69 66 63 60 57 54 52 49 48 46 45 44 42 41 40 40 39 39 38 38 38 38 38 38 38 38 38 39 39 40 40 41 42 42 43 44 44 45 46 47 47 48 49 49 49 50 50 49 49 48 47 47 46 46 46 47 47 47 48 49 50 52 54 55
107 108 110 112 113 113 113 112 111 109 106 102 98 94 89 85 81 78 74 70 66 63 60 57 54 51 49 47 45 44 43 42 41 40 40 39 39 38 38 37 37 37 37 37 36 36 36 36 37 37 37 38 38 39 39 40 41 42 42 43 44 45 46 47 48 48 49 50 50 50 50 49 48 47 47 47 47 47 47 48 48 49 51 52 53 53
109 111 112 112 113 112 111 109 106 102 98 94 89 84 80 76 73 69 65 61 58 54 52 49 47 45 43 42 41 41 40 40 39 39 38 37 37 36 36 35 35 35 34 34 34 34 34 34 34 34 34 35 35 36 36 37 38 39 39 40 41 42 43 44 45 46 47 48 49 49 49 49 48 48 48 48 48 49 49 50 51 51 52 52 53 53
112 112 112 112 111 109 107 103 99 95 90 85 80 75 71 67 64 61 57 53 50 47 45 43 42 41 40 40 39 39 39 39 38 37 36 35 34 34 33 33 33 32 32 32 32 32 33 33 33 32 33 33 33 34 35 35 36 37 37 38 39 40 40 41 42 43 45 46 47 47 48 48 48 48 48 49 49 50 51 52 52 53 53 53 53 53
113 113 112 110 108 105 101 96 91 85 80 76 72 68 64 60 56 53 49 47 44 42 40 39 38 38 38 39 39 39 38 37 36 35 33 33 32 32 31 31 31 32 32 32 33 33 33 33 33 33 33 33 33 34 34 35 36 36 37 38 38 39 39 40 40 41 42 43 44 45 45 46 46 47 47 48 49 50 51 52 53 53 54 54 54 54
112 112 110 106 102 98 94 89 82 76 70 66 63 60 57 53 49 46 43 41 40 39 38 37 37 37 37 38 38 37 36 35 33 32 31 30 30 30 31 31 32 32 33 33 34 34 34 34 34 34 33 33 33 34 34 35 35 36 36 37 38 38 38 39 39 40 40 41 42 43 43 44 45 45 46 47 48 49 50 51 52 53 53 54 54 54
109 107 104 100 95 89 84 80 75 68 62 58 55 53 50 47 44 41 38 37 37 37 36 36 36 36 36 37 37 36 34 32 30 29 29 29 29 30 31 32 32 33 34 34 35 35 36 35 35 34 34 34 34 34 34 34 35 35 36 36 37 37 37 38 38 38 39 39 40 41 42 43 43 44 45 45 46 47 48 49 50 51 52 53 53 54
106 102 97 93 88 81 74 69 66 61 56 52 49 47 44 42 39 37 35 35 36 36 35 35 34 34 34 34 34 33 32 30 28 28 28 29 30 31 32 33 34 34 35 35 36 36 37 36 36 35 35 35 34 34 35 35 35 35 36 36 36 36 36 36 37 37 37 38 39 39 40 41 42 43 44 44 45 46 47 48 49 50 51 52 53 53
100 96 90 85 80 74 67 61 57 53 50 47 44 42 40 38 37 36 35 34 34 34 33 33 33 33 33 32 32 31 30 29 28 28 29 30 32 33 34 35 35 35 36 36 37 37 37 37 37 36 36 36 36 36 36 36 36 37 36 36 36 35 35 35 35 36 36 37 37 38 39 39 40 41 43 44 45 46 47 48 49 50 51 51 52 53
93 88 82 77 71 66 61 55 51 47 44 42 40 39 38 37 36 35 35 34 33 32 31 30 30 31 31 31 30 30 29 28 28 28 29 31 33 34 35 35 36 36 36 37 37 38 38 38 37 37 37 37 37 37 37 37 38 38 37 37 36 35 35 35 35 35 35 36 36 36 37 38 39 40 41 43 44 45 47 48 49 50 50 51 51 52
86 80 74 69 63 58 53 49 46 43 41 39 38 37 36 36 35 35 34 33 32 30 29 28 28 29 29 30 30 30 29 29 28 29 30 31 33 35 35 35 35 35 36 36 37 37 38 37 37 37 37 37 37 37 37 38 38 38 38 37 37 36 35 35 34 34 34 35 35 35 36 36 37 38 39 41 42 44 46 47 49 50 50 51 51 51
78 73 67 61 56 52 48 44 41 39 38 37 36 35 35 34 34 33 32 31 30 28 27 26 26 27 28 30 30 30 30 30 29 29 30 32 34 35 36 35 34 34 35 36 36 36 37 36 36 36 36 36 36 37 37 38 39 39 38 38 37 36 36 35 35 35 34 34 35 35 35 35 36 36 37 39 40 42 44 46 48 49 50 51 51 51
70 64 59 54 50 46 43 40 38 37 36 35 35 34 34 33 32 32 31 29 28 27 26 25 25 26 28 30 31 31 31 31 30 30 30 31 34 35 36 35 34 34 35 35 36 36 36 36 35 35 35 35 35 36 37 38 38 39 38 38 37 36 36 35 35 35 35 35 35 35 35 35 35 35 36 37 38 40 42 44 46 48 49 50 51 51
62 57 53 49 45 41 39 37 36 35 34 34 33 33 32 31 31 30 29 28 26 25 25 24 24 25 26 29 31 32 33 32 31 30 30 30 33 35 36 35 35 34 35 36 36 36 35 35 34 34 34 34 35 36 37 38 38 38 38 37 36 35 35 35 35 35 35 35 35 35 35 35 34 34 34 35 36 38 40 42 44 46 48 49 50 51
56 51 47 44 40 38 36 35 34 34 33 33 32 31 30 30 29 28 27 26 25 25 24 24 25 25 25 27 30 32 33 33 31 30 29 29 31 34 36 36 35 35 35 36 36 36 35 34 34 34 34 34 35 36 37 38 38 38 37 36 35 34 34 33 33 34 34 34 34 34 34 34 34 34 34 34 35 36 37 39 41 44 46 48 49 51
50 46 43 40 37 35 34 33 33 33 32 31 30 29 28 28 28 27 27 26 25 24 24 24 25 26 26 27 29 31 33 32 31 29 28 28 30 33 35 36 36 36 36 37 36 36 35 34 34 34 34 35 36 37 38 38 38 37 35 34 33 32 31 31 31 31 31 31 31 31 31 32 32 32 32 33 33 34 35 37 39 41 43 45 47 49
45 42 39 37 35 33 32 32 32 32 31 30 29 28 27 27 26 26 26 25 25 25 24 25 25 26 27 28 29 31 32 31 29 27 26 26 29 32 35 36 36 36 37 37 37 36 35 35 34 35 35 36 37 38 38 38 37 35 34 32 31 30 29 28 28 27 27 27 27 28 28 28 29 29 30 30 31 32 33 34 36 38 40 42 44 47
41 38 36 35 33 32 32 32 32 31 30 29 28 27 26 26 25 25 25 25 24 24 24 25 26 26 27 28 29 30 31 30 28 26 25 26 28 32 34 35 36 36 37 37 37 36 35 35 35 35 36 37 38 38 38 37 35 34 32 31 29 28 27 26 25 25 25 25 25 25 26 26 26 27 27 28 29 30 31 32 33 35 37 39 41 43
38 36 35 34 33 32 32 31 31 30 29 29 28 27 26 25 25 24 24 24 23 23 24 24 25 26 27 28 29 29 29 28 26 25 24 25 28 31 34 36 36 36 36 36 36 36 36 36 36 36 37 38 38 37 37 35 34 33 31 30 28 27 25 25 24 24 24 24 24 24 24 24 25 25 26 26 26 27 28 29 31 32 34 36 38 40
36 35 34 33 33 33 32 31 30 29 29 28 27 27 26 25 25 24 24 23 23 23 23 23 24 25 26 27 28 29 28 28 26 25 24 25 27 31 34 36 36 36 36 36 36 36 36 36 37 37 37 37 37 36 35 34 33 31 30 29 27 26 25 24 23 23 23 23 23 23 23 23 24 24 25 25 25 26 26 27 28 29 31 33 35 36
35 34 34 34 34 33 32 31 30 28 28 27 27 27 26 26 25 25 24 24 23 23 22 22 23 24 25 26 27 28 28 28 27 26 26 26 28 31 34 35 36 36 36 35 35 36 36 37 37 37 37 37 36 35 34 32 31 30 29 28 27 25 24 23 23 22 22 22 22 22 22 23 23 24 24 25 25 26 26 26 27 28 29 30 31 33
35 34 35 35 34 34 32 31 29 28 27 27 26 26 26 26 26 25 25 24 23 22 22 21 21 22 23 25 26 28 28 28 28 27 27 28 29 32 34 35 35 35 35 35 36 36 37 37 37 38 37 36 35 34 32 31 30 29 28 27 25 24 23 23 22 22 22 22 22 22 22 23 23 23 24 25 25 25 26 26 26 27 27 28 29 30
35 35 35 35 35 33 32 30 29 28 28 27 26 26 26 25 25 25 25 24 24 23 22 21 21 21 22 23 25 27 28 29 28 28 28 29 30 32 34 35 36 35 35 35 36 37 37 38 38 37 36 35 34 32 31 30 29 28 27 26 24 23 23 22 22 22 23 23 23 23 23 23 24 24 24 25 25 25 26 26 26 26 27 27 28 29
35 36 36 35 34 33 31 30 29 29 28 28 27 27 26 25 25 25 25 25 24 23 23 22 22 21 22 23 24 26 28 28 28 28 29 29 30 32 34 35 36 35 35 35 36 37 38 38 37 37 35 34 33 31 30 29 28 27 26 25 23 22 22 22 22 23 23 23 23 23 23 23 23 24 24 24 25 25 25 25 25 25 26 26 27 27
36 36 36 35 34 33 31 30 30 29 29 29 28 28 27 26 26 25 25 25 25 24 24 23 23 22 22 22 24 26 27 28 28 28 29 30 31 32 34 35 35 35 35 35 37 38 38 38 37 35 34 32 31 30 29 29 27 26 25 23 23 22 22 22 22 23 23 23 23 22 22 22 22 22 23 23 24 24 24 24 24 24 25 25 26 26
36 36 35 34 33 32 31 30 30 30 30 29 29 29 28 28 27 27 26 25 25 25 25 25 24 23 23 22 23 25 27 28 28 28 28 29 31 32 34 35 36 36 35 35 37 38 39 38 36 34 33 31 30 29 28 27 26 25 24 23 22 22 22 23 23 23 24 23 22 21 21 20 20 21 21 22 22 23 23 23 23 23 23 24 24 24
36 35 34 33 33 32 31 31 30 30 30 30 30 30 30 29 29 28 27 26 26 26 26 26 25 25 24 23 23 25 26 27 28 28 28 29 31 32 34 35 36 36 36 35 36 38 39 38 36 33 31 29 28 27 26 25 24 23 23 23 23 23 23 24 24 25 25 25 23 22 21 20 20 21 21 22 22 22 23 23 23 23 23 23 23 23
34 34 33 32 32 32 31 31 31 31 31 31 31 31 31 30 30 30 29 28 27 27 26 26 26 26 25 24 23 24 25 27 27 28 28 29 30 32 33 34 35 36 36 36 36 36 37 36 34 32 29 28 26 25 24 23 22 22 22 23 23 24 25 25 26 26 26 26 25 24 22 21 21 21 22 22 23 23 23 23 23 23 22 22 22 23
33 32 31 31 31 31 31 31 32 32 32 32 32 31 31 31 31 31 30 29 29 28 27 27 27 26 26 25 24 24 24 26 27 27 28 29 30 31 33 34 35 36 36 36 35 35 35 34 32 30 28 27 25 24 23 22 21 21 21 22 23 24 25 25 25 26 26 26 26 24 23 21 21 21 22 23 23 24 24 24 24 24 23 22 22 22
31 31 30 30 31 31 31 32 32 32 32 32 32 32 32 32 32 32 31 31 30 29 29 28 27 27 26 26 26 25 25 25 26 27 28 29 30 31 32 33 34 35 36 37 36 35 33 31 30 28 27 25 24 22 22 21 21 21 21 22 23 24 24 24 24 25 26 27 26 25 23 21 20 20 21 22 23 24 25 25 25 25 24 23 22 21
30 30 30 30 30 31 31 32 32 32 32 32 32 32 32 32 32 32 32 32 31 31 30 29 29 28 27 26 26 26 26 26 26 27 28 29 30 30 31 32 33 34 35 36 37 36 33 30 28 26 25 24 23 22 21 21 21 21 22 22 22 22 23 23 24 25 27 27 27 26 24 21 20 20 20 22 23 24 25 26 26 26 26 25 24 22
30 30 30 30 31 31 32 32 33 33 33 33 32 32 32 33 33 33 33 33 32 32 32 31 30 29 28 27 26 26 26 26 27 27 28 29 29 30 31 32 33 33 34 35 36 35 33 30 26 24 23 23 22 21 21 21 22 22 22 22 22 22 22 23 24 26 27 28 28 27 25 23 22 21 21 22 23 24 25 26 27 27 27 27 26 24
30 30 30 30 31 31 32 32 33 33 33 33 33 33 33 33 33 34 34 34 33 33 33 32 32 31 30 28 27 25 25 26 26 27 28 29 29 30 30 31 32 33 33 34 34 33 31 28 25 23 21 21 20 20 21 21 22 22 22 22 22 23 23 24 25 26 27 27 27 27 27 25 24 23 23 23 23 24 25 26 27 28 29 29 28 27
30 30 31 31 31 32 32 32 33 33 33 33 34 34 34 34 34 34 34 34 34 34 33 33 33 32 31 30 28 27 26 25 26 26 27 28 29 29 30 31 31 32 33 33 33 32 29 26 24 22 20 19 18 18 19 19 20 21 22 22 23 24 25 26 26 26 26 26 26 26 26 25 25 24 24 24 25 25 26 27 28 29 30 30 30 30
30 31 31 31 32 32 32 32 33 33 33 33 34 34 34 34 35 35 35 34 34 34 33 33 33 33 32 31 30 28 27 26 25 26 27 28 28 29 29 30 31 32 32 32 32 30 27 24 22 20 19 18 16 15 15 16 18 19 21 22 23 24 25 26 26 26 26 25 25 24 24 24 24 24 24 25 26 26 27 28 29 29 30 31 31 30
31 31 31 31 32 32 32 32 33 33 33 33 33 34 34 34 34 34 34 34 34 33 33 33 33 32 32 31 30 29 28 26 25 25 26 27 28 28 29 29 30 31 32 31 30 28 26 23 20 18 17 16 15 14 14 14 16 18 20 21 23 24 25 26 25 25 24 24 23 23 23 23 23 24 25 25 26 27 27 28 29 30 30 31 30 30
31 31 31 31 31 32 32 32 32 33 33 33 33 33 33 33 34 34 34 33 33 33 32 32 32 32 32 31 30 29 28 26 25 25 25 26 27 27 28 28 29 30 31 30 29 27 24 21 18 16 15 15 14 14 14 15 16 17 19 21 22 24 24 25 24 24 23 23 22 22 22 23 23 24 25 25 26 27 28 28 29 30 30 30 30 29
30 30 30 31 31 31 31 32 32 32 32 32 32 32 32 32 32 32 32 32 32 32 31 31 31 31 31 31 30 29 27 26 25 24 25 25 26 26 26 27 28 29 29 29 28 25 23 20 17 16 15 14 14 14 15 16 16 18 19 21 22 23 23 23 22 22 21 21 21 21 21 22 22 23 24 25 26 27 28 29 29 30 30 30 29 28
29 29 30 30 30 30 31 31 31 31 31 31 31 30 30 30 30 30 30 31 30 30 30 30 30 30 30 30 29 28 27 26 24 24 24 24 25 25 25 26 26 27 28 28 26 24 21 18 16 15 14 14 15 15 16 17 18 18 20 21 22 21 21 21 21 20 20 19 19 20 20 21 22 23 24 25 27 28 29 30 30 30 30 30 29 28
28 28 28 29 29 29 29 30 30 30 30 30 29 29 29 29 28 28 28 28 28 28 28 28 28 28 28 28 29 28 27 25 24 23 23 23 23 24 24 24 25 26 26 26 25 22 20 17 15 14 14 14 15 16 16 17 18 19 20 21 20 19 18 19 18 18 18 18 18 18 19 20 21 22 24 25 27 29 30 31 31 31 31 30 30 29
27 27 28 28 28 28 28 29 29 29 28 28 28 28 27 27 27 27 26 26 26 26 26 26 25 25 25 26 27 27 26 25 24 23 22 22 22 22 22 23 24 25 25 24 23 21 19 17 15 14 14 14 16 16 16 17 19 20 21 20 19 18 17 17 16 16 16 16 16 17 17 18 20 21 23 25 26 28 29 30 30 31 31 31 30 29
26 26 27 27 27 27 27 27 27 27 27 27 26 26 26 26 26 25 25 25 25 24 24 24 24 24 24 24 24 25 25 25 24 23 22 21 21 21 21 21 22 23 24 23 21 19 18 16 15 14 14 15 16 16 16 17 19 21 21 20 19 18 17 15 14 14 14 14 15 16 17 18 19 21 22 23 25 26 27 28 29 30 31 31 31 30
25 26 26 26 26 26 26 26 26 26 26 26 25 25 25 25 25 25 25 24 24 24 24 23 23 22 22 22 23 23 23 23 23 22 22 21 20 20 19 20 21 22 22 22 20 18 16 15 14 14 14 15 16 16 16 17 19 21 21 20 19 18 16 14 13 13 13 13 14 15 17 18 19 20 21 22 23 24 25 26 28 29 30 30 31 30
25 25 25 25 25 25 25 24 25 25 25 25 25 24 25 25 25 25 25 24 24 24 24 23 23 22 21 21 21 21 21 22 22 22 21 21 20 19 18 19 19 20 21 20 19 17 15 14 14 14 14 15 16 16 16 17 19 21 21 20 19 17 15 14 13 13 12 13 14 15 17 19 20 20 20 20 21 22 24 25 27 28 29 30 31 31
24 25 24 24 24 24 24 24 24 24 24 24 24 24 25 25 25 25 25 25 24 24 24 23 23 22 22 21 20 20 20 20 20 21 21 20 19 18 17 17 18 19 20 19 18 16 14 13 13 13 13 14 14 15 16 17 19 20 21 20 18 16 15 13 13 12 13 14 15 16 17 18 19 19 20 20 20 21 23 24 26 27 29 30 31 31
24 24 24 23 23 23 23 23 23 23 23 24 24 25 25 25 25 25 25 25 24 24 23 23 22 22 21 21 20 20 19 19 19 19 19 19 17 16 16 16 17 18 18 18 17 15 13 12 12 12 12 13 13 14 15 16 18 20 20 20 18 15 14 12 12 12 13 14 15 16 17 17 18 18 19 19 20 21 22 23 25 26 28 29 30 31
23 23 23 22 22 22 22 22 22 23 23 24 24 25 25 25 25 25 25 25 24 24 24 23 22 21 21 20 20 20 19 19 19 18 18 17 16 15 14 15 16 16 17 17 15 14 12 11 11 11 11 12 12 12 13 15 16 18 19 19 17 14 12 11 11 12 13 14 15 16 17 17 17 18 19 20 21 21 22 23 24 26 27 29 30 30
23 23 22 22 22 22 22 22 22 23 23 24 24 25 25 25 25 25 25 25 25 24 24 23 22 21 21 20 19 19 19 18 18 18 17 16 15 14 13 13 14 15 16 15 14 13 11 10 10 10 10 11 11 11 11 12 14 16 18 18 16 13 12 11 11 12 13 14 15 15 16 17 18 19 20 21 22 22 23 23 24 25 27 28 29 30
23 23 22 22 22 22 22 22 23 23 24 24 24 25 24 25 24 24 25 25 25 25 24 24 23 22 21 20 19 19 18 18 18 18 17 16 14 13 12 12 13 14 14 14 13 12 10 10 9 9 9 10 10 10 10 10 12 15 17 17 15 13 11 11 11 12 13 14 14 15 16 17 18 19 21 22 23 23 24 24 24 25 26 27 28 29
Wind_Direction
306 306 306 306 306 306 306 306 306 306 306 306 305 305 305 304 304 303 302 301 301 300 300 300 300 300 300 300 300 300 300 300 300 300 300 300 301 301 301 301 301 301 300 299 299 297 296 295 293 291 290 288 286 285 283 281 280 278 277 276 274 273 272 271 271 270 269 268 267 267 266 265 265 264 263 262 262 261 260 260 259 259 258 257 257 256
306 307 307 307 307 307 307 307 307 307 306 306 306 305 305 304 304 303 302 302 301 301 301 301 301 301 301 302 302 302 302 302 302 302 303 303 304 304 305 305 305 304 303 302 301 300 299 297 296 294 292 291 289 287 285 284 282 281 279 278 276 275 274 273 272 271 270 269 268 267 266 265 265 264 263 263 262 261 261 261 260 260 259 258 257 257
307 307 307 308 308 308 308 308 307 307 307 306 306 305 305 304 304 303 302 302 302 302 302 302 302 302 302 303 303 303 303 303 303 304 304 305 306 307 307 307 306 305 304 303 302 301 299 298 296 295 293 292 290 289 287 286 284 283 281 280 279 277 276 274 273 272 271 270 268 267 266 265 265 264 263 263 263 263 262 262 261 260 259 258 258 257
308 308 308 308 308 308 308 308 308 307 307 307 306 306 305 304 304 303 303 303 303 302 302 302 302 302 303 303 303 303 303 303 304 304 306 307 307 307 307 307 306 305 304 303 302 301 300 298 297 295 294 293 292 291 289 288 287 286 284 282 281 279 278 276 275 273 272 270 269 268 267 265 264 264 263 263 263 263 262 262 261 260 259 259 258 257
309 309 309 309 309 309 309 309 308 308 307 307 306 305 305 304 303 303 303 303 303 302 302 302 302 303 303 303 303 303 302 303 304 305 307 308 308 308 307 307 306 305 305 304 303 302 301 300 299 298 298 297 296 295 294 293 291 289 287 285 284 282 280 278 276 275 273 272 270 269 267 266 265 264 263 262 262 262 262 261 261 260 259 259 258 258
310 310 310 310 310 310 309 309 308 308 307 307 306 305 304 304 303 303 303 303 302 301 301 302 303 303 303 303 302 302 303 304 305 307 309 310 310 310 309 309 308 308 307 307 306 306 305 304 304 303 303 303 302 301 300 298 297 294 292 289 287 285 282 280 278 276 275 273 272 270 269 267 265 264 262 261 260 260 260 260 260 260 260 260 259 258
310 310 310 310 310 310 310 309 308 308 307 307 306 305 304 304 303 303 303 303 302 301 301 302 303 303 303 303 302 303 304 306 308 310 311 312 312 312 311 311 310 310 310 309 308 308 307 306 306 306 306 306 306 305 304 302 300 298 296 293 291 288 285 282 280 277 276 274 272 271 269 268 266 264 262 261 260 259 259 259 260 260 260 260 260 260
311 311 311 311 311 310 310 309 309 308 307 306 305 304 304 303 303 303 303 303 302 302 302 303 303 304 303 303 303 304 305 308 311 313 314 314 313 313 312 311 311 310 309 309 308 307 306 306 305 305 305 305 305 305 304 303 302 300 299 296 294 291 289 286 283 280 277 275 273 271 270 268 266 264 262 261 259 258 258 258 258 259 260 260 260 260
312 312 311 311 311 310 310 309 309 308 307 306 305 304 304 304 304 303 303 303 303 303 304 304 304 304 303 303 303 305 307 310 313 314 315 314 313 312 311 310 309 309 308 307 306 305 304 304 304 303 304 304 304 304 304 304 304 303 301 299 297 294 292 289 286 283 279 276 274 271 269 268 266 264 262 260 259 258 257 256 257 257 258 259 259 260
312 312 311 311 311 310 310 309 308 307 307 306 305 305 305 304 304 304 303 303 304 304 305 305 304 304 303 303 303 305 308 311 314 315 315 314 313 311 310 309 309 308 308 307 306 305 304 304 303 303 303 303 304 305 306 306 307 306 304 302 299 296 294 291 288 285 282 279 276 273 270 268 266 264 262 260 259 257 256 255 255 255 256 257 258 259
312 312 311 311 311 311 310 310 309 307 307 306 306 306 306 306 306 305 305 304 304 305 305 305 305 304 303 303 303 305 308 311 314 315 315 313 312 311 310 309 309 310 309 309 308 307 306 306 305 304 304 304 304 306 307 309 309 308 307 304 301 297 294 291 288 286 283 281 278 275 272 269 266 264 262 261 259 257 256 255 254 254 255 256 257 258
312 312 311 311 311 311 310 310 309 308 307 307 307 307 307 307 307 307 306 306 305 305 305 305 304 304 303 303 304 306 309 312 314 315 314 313 311 310 310 310 311 311 312 311 311 310 308 307 307 305 305 304 305 306 308 310 310 309 307 304 301 297 294 290 287 285 283 281 278 276 273 271 268 265 263 261 260 258 257 256 255 254 254 255 256 257
312 312 312 312 312 311 311 310 309 309 308 308 308 308 308 308 308 307 307 307 306 306 305 304 304 303 303 304 305 307 309 312 314 315 314 312 311 310 310 311 312 313 313 312 312 310 309 308 307 306 305 305 306 307 309 310 310 309 307 304 300 297 293 290 287 285 282 280 278 276 274 271 269 266 264 262 260 259 258 257 256 255 255 255 255 256
312 312 313 313 312 312 311 311 310 309 309 308 308 308 308 309 308 308 307 307 306 306 305 305 305 304 304 304 305 307 310 312 314 315 315 313 312 311 311 312 314 314 314 313 312 310 309 308 307 306 305 306 307 309 310 311 310 308 306 303 300 297 294 291 289 286 284 282 280 278 275 272 270 267 265 262 261 259 258 257 257 256 256 255 255 255
313 313 313 313 313 312 311 311 310 309 309 309 309 309 309 309 308 308 307 307 306 306 305 305 305 305 304 304 305 307 309 311 314 316 316 315 313 312 312 314 315 316 315 314 312 311 310 308 307 306 306 307 309 310 311 311 310 308 306 303 300 298 295 293 291 289 287 284 282 280 277 275 272 269 266 263 261 259 257 257 256 256 256 255 255 255
314 314 313 313 312 311 311 310 309 309 309 309 310 310 310 310 309 308 308 307 307 306 306 305 304 304 303 303 304 306 308 311 314 317 318 317 314 313 313 315 316 317 316 315 313 312 311 310 309 309 309 310 312 313 313 312 310 308 306 303 301 298 296 294 292 290 288 286 284 282 280 278 275 272 268 265 262 259 257 256 255 255 255 255 255 255
314 314 313 312 311 310 310 309 309 309 309 310 311 311 312 311 311 310 309 309 308 308 307 305 305 304 302 302 303 305 307 311 315 318 320 318 315 313 314 316 317 318 317 316 315 314 313 312 311 311 312 313 314 315 314 312 310 308 306 304 301 299 296 294 292 290 289 287 286 284 282 280 278 274 271 268 265 261 258 256 255 254 254 254 254 254
314 313 312 311 310 310 310 310 310 310 310 311 312 313 314 313 313 312 311 310 310 309 308 306 305 305 304 304 304 305 307 311 315 319 320 319 316 314 314 316 318 319 319 318 316 315 315 314 314 315 315 316 316 316 314 312 310 308 306 304 302 299 297 295 293 292 290 288 287 285 283 281 279 276 274 271 268 264 261 258 256 255 254 253 253 253
313 312 311 310 310 310 310 311 311 311 311 312 314 315 316 315 315 314 313 312 311 311 310 308 307 307 307 307 307 307 308 312 316 320 321 319 316 315 315 317 319 321 320 319 318 317 317 317 317 317 318 318 318 316 315 313 311 309 307 305 303 301 299 298 296 294 292 290 288 286 284 282 280 277 275 272 269 267 264 261 259 257 255 254 254 254
313 312 311 310 310 311 312 312 312 312 313 314 315 317 317 317 317 316 315 314 313 313 312 311 311 310 309 309 308 308 310 313 317 320 322 320 317 316 316 319 321 322 322 321 319 318 318 318 319 320 320 320 319 317 315 314 312 310 308 307 305 304 303 301 300 298 296 294 292 290 287 285 283 280 278 275 272 269 266 263 261 259 257 255 255 254
313 312 311 311 312 312 313 313 314 313 314 315 316 318 319 319 319 318 318 317 316 316 315 314 313 312 310 310 309 309 311 314 317 320 322 322 319 318 318 320 323 324 323 322 321 320 320 320 321 322 322 321 320 318 317 315 313 312 311 310 309 308 307 306 304 302 300 299 297 295 293 291 288 286 283 280 277 274 270 267 264 261 259 257 256 255
313 312 312 313 313 314 314 314 314 314 315 316 317 318 320 320 321 321 321 320 320 319 318 316 314 312 311 310 310 310 312 315 319 322 324 324 322 320 320 322 325 326 325 323 322 321 321 321 323 323 323 322 321 319 318 316 315 314 313 313 313 313 312 310 309 307 305 304 302 301 299 298 296 293 291 288 285 281 277 273 270 266 263 260 258 257
313 313 313 314 314 315 315 314 314 314 315 316 318 319 321 322 323 323 324 323 323 322 320 317 315 313 312 311 311 312 314 317 321 324 326 326 325 323 323 325 327 328 327 324 322 321 322 323 324 325 324 323 321 320 319 318 317 316 316 316 317 316 316 314 313 311 310 309 308 306 305 304 302 300 298 295 292 289 285 281 277 273 269 266 263 261
314 313 314 315 315 315 315 315 314 315 315 317 318 320 321 323 324 325 325 325 325 323 321 319 316 314 313 313 313 314 316 319 322 325 327 328 327 325 325 326 328 329 328 325 323 322 323 324 325 325 325 324 322 321 320 319 319 319 319 319 319 319 319 318 317 316 315 314 313 311 310 308 307 305 303 301 298 295 291 288 284 280 276 273 269 266
314 314 314 315 315 315 315 315 315 315 316 317 318 320 321 323 325 325 326 326 325 324 323 321 319 317 316 316 316 317 318 321 324 326 328 328 328 327 326 328 330 330 329 326 324 324 324 325 326 326 326 324 324 323 322 321 321 321 321 321 322 321 322 321 321 321 320 318 317 315 314 312 311 309 307 305 303 300 297 294 290 286 282 278 275 272
314 314 315 315 315 315 315 315 315 316 316 317 318 320 321 323 324 324 324 325 325 325 324 323 323 322 321 320 320 320 320 322 324 326 328 328 328 327 327 329 331 331 330 328 325 325 326 327 327 327 326 326 325 324 324 323 323 323 323 323 323 323 323 324 324 323 322 321 320 319 317 315 314 312 310 309 307 304 302 299 295 292 288 284 280 277
314 314 315 315 315 316 315 315 316 316 316 317 318 319 321 322 323 323 324 324 324 325 325 326 325 325 325 324 323 321 321 322 324 326 326 327 327 327 328 330 331 332 331 329 327 326 327 328 328 328 327 327 326 326 325 325 324 324 323 323 323 323 324 324 324 323 323 323 322 322 321 319 318 316 314 312 310 308 306 304 301 297 294 290 286 282
314 314 314 315 315 315 316 316 316 316 317 317 318 319 320 321 322 322 323 323 324 324 326 326 326 326 327 326 325 323 321 322 323 324 325 326 326 327 328 330 332 333 332 331 329 328 328 329 329 329 328 328 327 327 326 325 324 323 323 322 322 323 323 324 324 324 323 324 325 325 325 324 323 321 319 318 316 314 312 309 307 304 301 298 294 289
313 314 314 315 315 316 316 317 317 317 317 317 317 318 319 320 320 321 321 322 322 323 324 325 325 326 326 326 325 323 322 321 322 323 324 325 326 327 329 331 332 333 333 332 330 329 329 329 330 330 329 329 328 327 326 325 324 324 323 323 323 323 324 324 324 324 325 325 325 326 327 327 327 327 326 325 324 322 320 317 314 312 308 304 300 295
313 314 314 315 316 317 317 317 317 317 316 316 317 317 318 318 319 319 320 320 321 321 322 323 323 324 324 324 324 322 321 321 321 322 323 324 325 327 329 331 332 333 333 333 332 330 329 330 330 330 330 329 329 328 328 327 326 325 324 324 324 324 325 325 325 326 326 325 325 325 326 327 328 330 331 332 332 330 328 325 321 318 314 309 303 297
313 314 314 315 316 317 317 317 317 316 316 316 315 316 316 316 316 317 317 318 318 319 320 320 320 321 322 322 322 322 321 320 320 321 322 323 324 327 329 332 333 333 333 333 333 332 331 330 330 330 331 331 331 331 330 329 328 326 325 325 324 325 325 326 327 329 329 328 327 325 325 326 329 332 334 336 336 335 332 329 326 323 319 313 306 298
314 314 315 316 316 317 317 316 316 315 314 314 314 313 313 313 313 314 314 315 316 316 317 317 318 318 319 320 321 321 321 320 320 320 321 322 324 327 329 332 334 334 334 334 334 334 333 332 332 331 332 332 333 333 332 331 330 329 327 325 325 325 326 328 332 334 335 334 331 329 327 327 330 334 337 338 338 337 334 332 329 326 323 318 311 303
315 315 316 316 316 316 316 315 314 313 313 312 311 311 311 311 311 311 311 312 313 313 314 314 315 316 317 318 319 320 320 320 320 320 320 322 324 326 330 332 334 334 334 334 335 335 335 334 334 333 334 334 334 334 335 334 333 332 330 328 327 328 330 334 338 341 340 338 336 334 333 332 334 337 339 340 339 338 335 333 330 328 325 321 316 310
316 316 316 316 316 315 315 314 313 312 312 311 310 310 309 309 308 308 309 309 310 310 311 312 312 313 314 315 317 318 319 319 319 319 320 321 323 327 330 333 335 335 335 335 335 336 336 336 335 336 336 336 336 337 337 338 337 335 334 332 332 334 338 342 345 345 343 341 339 338 338 338 339 341 342 342 341 339 337 334 331 329 326 323 319 315
316 316 316 316 315 314 313 313 312 312 311 310 310 309 308 308 307 307 307 307 307 308 309 309 310 311 312 313 314 315 316 317 318 319 319 321 323 327 330 333 335 335 336 336 336 336 336 336 336 337 339 340 341 341 341 341 340 339 337 336 338 341 345 348 348 347 344 342 341 340 341 342 343 344 345 344 343 341 338 336 333 330 327 324 321 318
316 315 315 315 314 313 312 312 311 311 310 310 309 309 308 307 307 306 306 306 306 306 307 307 308 308 309 310 312 313 315 316 317 318 319 320 323 326 330 333 335 336 336 337 337 337 336 336 337 338 341 344 347 347 346 345 343 341 340 341 343 347 350 351 350 348 346 345 343 343 343 344 345 346 347 346 345 342 340 337 334 331 328 326 324 321
315 314 314 314 313 312 312 311 311 311 310 310 309 309 308 307 307 306 306 305 305 305 305 305 306 306 307 308 309 311 313 315 316 317 318 320 322 326 330 333 335 336 337 337 338 338 337 337 337 339 342 345 348 351 352 349 346 346 346 347 349 352 353 353 352 351 349 349 348 348 347 347 348 348 348 347 345 343 341 339 336 333 331 328 325 323
314 314 313 313 312 312 312 312 311 311 311 310 310 309 309 308 308 307 306 306 305 305 305 305 305 305 305 306 307 309 311 313 315 317 318 319 322 325 329 333 335 336 337 337 338 338 338 338 339 340 342 344 347 349 351 350 352 354 355 354 355 355 354 354 354 354 353 354 354 353 352 351 350 350 349 347 346 344 343 341 338 336 333 330 327 324
314 313 313 313 313 313 313 313 313 312 312 312 311 311 311 310 309 308 308 307 307 306 305 305 304 304 304 304 305 307 309 311 313 315 317 318 321 324 329 332 335 336 337 337 338 338 338 338 339 340 342 343 343 344 346 349 354 359 1 1 359 357 355 355 355 356 357 358 358 356 355 353 352 351 350 349 347 346 345 343 341 338 335 332 330 327
314 314 314 314 314 314 314 315 314 314 314 314 314 314 313 313 312 311 310 309 309 308 307 306 305 304 303 303 304 305 307 309 312 314 316 318 320 324 328 332 335 336 337 337 338 338 339 339 340 340 340 339 339 339 342 348 355 1 5 6 4 0 357 356 357 359 1 1 1 359 357 355 354 353 352 351 350 349 348 346 344 341 338 336 333 331
315 315 316 316 316 316 317 317 317 317 318 318 318 317 316 316 315 314 313 312 311 310 309 308 307 305 305 304 304 304 306 308 310 312 314 316 319 323 327 331 335 336 337 338 338 338 338 339 339 340 339 336 334 335 340 349 357 2 6 8 7 4 1 360 360 2 4 4 3 1 359 357 356 355 354 354 353 351 350 348 346 344 342 340 338 336
317 317 318 319 319 320 320 321 321 321 322 321 321 320 320 319 319 318 317 315 314 312 311 310 308 308 307 306 305 305 306 307 309 311 312 314 317 322 326 331 335 337 337 338 338 337 337 337 338 338 336 333 330 332 340 351 359 4 6 7 7 8 6 4 4 4 5 5 4 2 359 358 356 356 356 355 354 352 351 349 347 346 345 344 343 341
319 320 321 322 323 324 324 325 325 325 325 325 325 324 324 323 323 322 320 319 317 315 314 312 310 309 308 307 306 306 306 307 308 309 311 313 316 320 326 331 335 337 338 338 338 337 336 336 336 335 334 331 328 330 340 356 4 5 5 6 8 10 12 10 9 8 5 3 1 359 357 356 355 356 357 356 355 352 351 349 349 348 348 348 348 347
322 323 324 325 326 327 328 328 328 329 329 329 329 329 329 328 328 327 326 324 322 320 318 316 314 312 310 309 308 308 307 307 308 309 310 311 314 319 325 331 335 337 337 337 337 336 335 334 334 334 333 332 330 332 343 358 5 6 5 5 7 10 12 13 12 9 5 1 357 354 353 352 353 355 357 357 355 353 352 351 351 351 352 353 353 352
325 326 327 328 328 329 330 330 331 331 331 331 332 332 333 333 332 332 331 329 327 325 323 320 318 316 313 312 310 309 309 308 308 308 309 310 313 318 325 331 335 336 337 337 336 335 334 333 333 334 335 334 333 337 347 360 5 5 4 5 6 8 10 11 10 7 2 358 354 351 350 350 351 353 356 357 356 355 355 355 354 355 356 358 358 358
327 328 328 329 330 331 331 332 332 332 333 333 334 335 336 336 336 335 334 333 331 329 327 324 321 319 316 314 312 311 310 309 308 308 308 309 312 317 324 331 335 336 336 336 336 335 334 334 334 336 338 338 338 341 350 360 4 4 3 3 4 5 6 7 5 2 359 356 353 351 352 353 355 356 358 359 360 360 359 359 358 359 1 3 4 3
328 329 329 330 331 331 332 333 333 333 334 335 336 337 338 338 338 337 336 335 333 331 329 327 324 321 318 316 314 313 311 309 308 307 306 307 310 316 323 330 334 336 336 336 336 335 335 335 335 338 340 341 341 345 353 0 3 2 1 1 2 4 5 5 3 0 357 356 356 357 359 1 2 2 3 5 5 5 3 2 3 4 6 7 8 8
328 329 329 330 331 331 332 332 333 334 335 336 336 337 338 338 338 337 336 335 334 333 330 328 326 323 321 319 317 315 313 310 308 305 304 305 308 315 323 330 333 335 335 336 336 336 336 336 337 339 342 343 343 347 355 2 3 2 360 360 1 3 6 6 4 1 360 360 2 5 9 11 13 13 13 13 13 11 9 7 8 9 11 12 13 12
328 329 329 330 330 331 331 332 333 333 335 335 336 337 337 337 337 336 336 335 334 333 331 329 327 325 323 321 320 318 316 313 309 306 303 304 307 314 323 329 332 333 334 335 336 337 338 338 340 342 344 346 346 349 357 3 4 2 360 358 360 3 9 10 8 7 7 8 11 15 19 22 23 23 22 21 21 18 16 14 13 14 16 17 17 16
329 329 330 330 330 330 330 331 332 333 334 335 336 336 336 336 336 336 336 335 334 333 332 331 329 326 325 323 322 321 319 316 312 308 306 305 307 314 323 329 331 333 334 335 337 339 341 342 343 346 349 349 349 350 356 1 4 3 0 358 360 5 12 16 16 16 16 18 22 26 30 31 31 30 29 27 25 23 21 20 19 19 20 21 21 21
329 329 330 330 330 330 330 331 332 333 333 334 335 335 335 336 336 336 336 335 335 334 333 332 330 328 327 325 324 323 322 319 316 312 309 307 308 314 322 328 331 333 334 335 338 340 344 346 348 351 354 355 354 352 353 357 3 5 0 358 1 9 18 22 23 24 26 28 32 36 39 39 37 34 32 29 27 25 24 23 23 23 24 25 25 25
Height
5508 5503 5498 5494 5490 5485 5478 5471 5466 5461 5456 5448 5441 5434 5430 5425 5419 5412 5406 5401 5396 5391 5386 5382 5378 5375 5372 5369 5366 5362 5359 5356 5354 5351 5349 5346 5344 5342 5341 5339 5337 5336 5335 5333 5332 5331 5331 5330 5329 5328 5328 5327 5326 5326 5326 5325 5325 5325 5324 5324 5324 5323 5323 5323 5323 5323 5323 5323 5323 5323 5323 5323 5324 5324 5324 5324 5324 5325 5325 5326 5326 5327 5328 5329 5330 5331
5500 5495 5489 5484 5481 5476 5470 5462 5455 5449 5444 5438 5432 5425 5419 5415 5409 5404 5398 5393 5388 5384 5380 5376 5372 5369 5366 5363 5361 5358 5355 5352 5349 5347 5345 5343 5341 5339 5338 5336 5335 5333 5331 5330 5329 5328 5327 5326 5325 5324 5324 5323 5322 5321 5321 5321 5320 5320 5319 5319 5318 5318 5318 5318 5317 5317 5318 5317 5317 5318 5318 5318 5318 5319 5319 5319 5319 5319 5320 5320 5321 5321 5322 5323 5323 5324
5492 5487 5481 5475 5470 5466 5461 5454 5446 5439 5432 5427 5422 5416 5410 5405 5401 5396 5391 5386 5382 5377 5373 5370 5367 5365 5362 5359 5357 5354 5351 5348 5346 5344 5342 5341 5339 5337 5335 5334 5332 5331 5329 5327 5326 5325 5324 5323 5322 5321 5320 5319 5318 5317 5316 5316 5316 5315 5314 5314 5313 5313 5313 5312 5312 5312 5312 5312 5312 5312 5312 5312 5312 5313 5314 5314 5314 5314 5315 5315 5316 5316 5316 5317 5317 5318
5483 5478 5472 5466 5460 5455 5449 5443 5437 5430 5423 5417 5412 5407 5402 5397 5392 5388 5385 5381 5377 5373 5369 5366 5363 5361 5359 5356 5354 5351 5348 5346 5344 5342 5340 5339 5337 5335 5333 5331 5330 5328 5326 5325 5324 5322 5321 5320 5319 5318 5317 5316 5315 5314 5313 5312 5311 5311 5310 5309 5309 5308 5307 5307 5306 5306 5306 5306 5306 5306 5306 5306 5307 5307 5308 5309 5309 5309 5309 5310 5310 5311 5311 5311 5312 5312
5472 5468 5463 5456 5450 5444 5438 5432 5426 5421 5414 5409 5404 5400 5396 5391 5386 5382 5379 5376 5372 5369 5366 5363 5360 5358 5356 5353 5351 5348 5346 5344 5342 5340 5339 5337 5335 5333 5331 5329 5327 5326 5324 5323 5321 5320 5319 5317 5316 5315 5314 5312 5311 5311 5310 5309 5307 5307 5306 5305 5304 5303 5302 5302 5301 5301 5300 5300 5300 5300 5300 5301 5302 5302 5303 5303 5303 5303 5303 5303 5303 5304 5304 5305 5306 5306
5461 5456 5451 5447 5441 5435 5428 5423 5417 5412 5406 5401 5396 5392 5389 5385 5381 5378 5375 5371 5368 5366 5362 5360 5358 5355 5353 5350 5348 5346 5343 5341 5340 5338 5337 5335 5333 5331 5329 5327 5325 5323 5322 5320 5319 5317 5316 5314 5313 5312 5311 5309 5308 5307 5306 5305 5304 5303 5302 5301 5300 5299 5298 5297 5296 5296 5295 5294 5294 5294 5294 5295 5295 5296 5296 5297 5297 5297 5297 5297 5297 5297 5298 5298 5299 5300
5451 5446 5439 5435 5431 5425 5419 5413 5408 5404 5400 5395 5390 5386 5383 5380 5377 5374 5371 5368 5365 5362 5360 5357 5355 5352 5350 5347 5345 5343 5341 5340 5338 5336 5335 5333 5331 5328 5326 5325 5323 5321 5319 5318 5316 5315 5313 5312 5310 5309 5308 5306 5306 5304 5303 5302 5300 5299 5298 5296 5295 5294 5293 5292 5291 5291 5290 5289 5289 5289 5289 5289 5289 5289 5290 5290 5291 5291 5291 5291 5291 5291 5292 5292 5293 5294
5442 5437 5430 5424 5420 5416 5411 5405 5399 5396 5394 5390 5385 5381 5378 5376 5373 5371 5368 5364 5361 5359 5357 5355 5352 5350 5347 5345 5342 5340 5339 5338 5336 5335 5333 5331 5328 5326 5324 5322 5321 5319 5317 5316 5314 5312 5311 5309 5308 5306 5305 5304 5303 5301 5300 5299 5297 5296 5294 5293 5291 5290 5289 5288 5287 5286 5286 5285 5284 5284 5283 5283 5283 5283 5284 5284 5284 5285 5285 5285 5286 5286 5286 5286 5287 5288
5431 5427 5423 5416 5411 5407 5404 5399 5393 5388 5386 5383 5380 5377 5375 5372 5370 5368 5365 5362 5358 5356 5354 5352 5350 5348 5345 5342 5340 5338 5337 5336 5334 5333 5331 5329 5326 5325 5322 5321 5319 5317 5315 5313 5311 5310 5308 5306 5305 5304 5302 5301 5300 5299 5297 5296 5294 5293 5291 5290 5288 5286 5285 5284 5282 5281 5281 5280 5280 5279 5278 5278 5278 5278 5278 5278 5278 5279 5279 5279 5280 5280 5281 5281 5281 5282
5421 5417 5414 5409 5403 5399 5396 5394 5389 5384 5380 5377 5375 5372 5370 5368 5366 5364 5362 5360 5356 5353 5351 5349 5347 5345 5343 5340 5338 5336 5335 5334 5332 5331 5329 5326 5324 5322 5320 5318 5316 5315 5313 5311 5309 5307 5305 5304 5302 5301 5299 5298 5296 5295 5294 5292 5291 5289 5288 5286 5285 5283 5281 5280 5278 5277 5276 5275 5275 5274 5274 5273 5273 5273 5273 5273 5273 5273 5273 5274 5274 5275 5275 5276 5276 5276
5413 5409 5405 5401 5397 5393 5389 5386 5383 5380 5376 5373 5371 5368 5366 5364 5362 5360 5358 5356 5354 5352 5350 5347 5345 5342 5340 5338 5336 5334 5333 5332 5331 5329 5327 5325 5322 5320 5318 5316 5314 5312 5311 5309 5306 5304 5302 5301 5299 5297 5296 5295 5293 5292 5290 5289 5287 5286 5284 5282 5281 5279 5277 5276 5274 5273 5272 5271 5270 5269 5269 5269 5268 5268 5268 5268 5268 5268 5268 5268 5268 5269 5269 5270 5270 5271
5406 5402 5399 5395 5391 5387 5384 5381 5378 5375 5372 5370 5367 5365 5363 5361 5359 5357 5355 5353 5351 5350 5347 5345 5343 5340 5338 5335 5334 5332 5331 5330 5329 5327 5325 5323 5320 5318 5316 5314 5312 5310 5308 5306 5304 5301 5299 5297 5296 5294 5292 5291 5290 5288 5287 5285 5284 5282 5280 5279 5277 5275 5273 5272 5270 5269 5268 5267 5266 5265 5264 5264 5264 5263 5263 5263 5263 5263 5263 5263 5263 5263 5264 5264 5265 5265
5400 5396 5392 5389 5385 5382 5379 5376 5373 5371 5368 5366 5364 5362 5360 5358 5356 5354 5352 5350 5348 5347 5345 5343 5341 5339 5336 5333 5331 5330 5329 5328 5327 5326 5324 5321 5318 5316 5314 5312 5311 5308 5306 5304 5301 5299 5297 5295 5293 5291 5290 5288 5286 5285 5284 5282 5280 5278 5276 5275 5273 5271 5269 5268 5266 5265 5264 5262 5261 5261 5260 5260 5259 5259 5259 5259 5258 5258 5258 5258 5258 5258 5258 5259 5259 5260
5394 5390 5386 5383 5380 5377 5374 5371 5369 5367 5365 5363 5361 5359 5357 5356 5354 5351 5349 5348 5346 5344 5343 5341 5339 5337 5334 5331 5329 5327 5326 5326 5326 5324 5322 5319 5316 5313 5311 5310 5309 5306 5304 5302 5300 5297 5295 5293 5291 5289 5287 5285 5284 5282 5281 5279 5277 5275 5273 5271 5269 5267 5265 5263 5262 5261 5259 5258 5257 5256 5256 5255 5255 5254 5254 5254 5254 5254 5254 5253 5253 5253 5254 5254 5254 5254
5387 5384 5381 5378 5376 5373 5371 5368 5366 5364 5362 5361 5359 5357 5355 5353 5351 5349 5347 5345 5344 5342 5341 5339 5337 5335 5332 5329 5327 5325 5324 5324 5323 5322 5320 5317 5314 5311 5309 5308 5306 5305 5302 5300 5297 5295 5293 5290 5288 5286 5285 5283 5281 5279 5277 5275 5273 5271 5269 5267 5265 5263 5261 5259 5258 5256 5255 5254 5253 5252 5251 5251 5250 5250 5249 5249 5249 5249 5249 5249 5249 5249 5249 5249 5249 5249
5382 5379 5377 5374 5372 5370 5368 5366 5363 5361 5360 5358 5357 5355 5352 5350 5348 5346 5344 5342 5341 5340 5338 5336 5335 5333 5331 5328 5325 5323 5321 5321 5321 5320 5318 5316 5312 5309 5306 5305 5304 5303 5300 5297 5295 5292 5290 5288 5286 5284 5282 5280 5278 5276 5274 5272 5270 5267 5265 5263 5261 5259 5257 5256 5254 5252 5251 5250 5249 5248 5247 5246 5246 5245 5245 5245 5244 5244 5244 5244 5244 5244 5244 5245 5245 5245
5378 5375 5373 5371 5369 5367 5365 5363 5361 5359 5357 5356 5354 5352 5350 5348 5346 5344 5342 5340 5339 5337 5336 5334 5333 5331 5330 5327 5325 5321 5320 5319 5319 5318 5316 5313 5310 5307 5304 5303 5302 5301 5298 5295 5292 5290 5287 5285 5283 5281 5279 5277 5276 5273 5271 5269 5266 5264 5262 5260 5258 5256 5254 5252 5251 5249 5248 5246 5245 5244 5243 5242 5241 5241 5241 5241 5240 5240 5240 5240 5240 5240 5240 5240 5240 5240
5375 5372 5370 5368 5366 5364 5363 5361 5358 5357 5355 5353 5352 5350 5348 5346 5344 5341 5340 5338 5336 5335 5333 5332 5330 5329 5327 5325 5323 5321 5318 5317 5316 5316 5314 5312 5309 5305 5302 5301 5299 5298 5296 5292 5290 5287 5285 5282 5280 5278 5276 5275 5273 5271 5268 5266 5263 5261 5259 5257 5255 5253 5251 5249 5248 5246 5245 5243 5242 5241 5240 5239 5238 5237 5237 5236 5236 5236 5236 5236 5236 5235 5235 5235 5235 5235
5371 5369 5366 5365 5363 5361 5360 5358 5356 5354 5352 5351 5349 5348 5346 5344 5342 5340 5338 5336 5334 5333 5331 5330 5328 5326 5324 5322 5321 5318 5316 5315 5315 5314 5312 5310 5307 5304 5301 5299 5297 5296 5293 5290 5287 5284 5282 5280 5277 5275 5273 5271 5270 5267 5265 5263 5261 5258 5256 5254 5252 5250 5248 5246 5245 5243 5241 5240 5239 5237 5236 5235 5234 5234 5233 5232 5232 5231 5231 5231 5231 5231 5231 5231 5231 5231
5368 5366 5364 5362 5360 5359 5357 5355 5353 5351 5350 5348 5347 5345 5344 5342 5340 5338 5336 5334 5332 5331 5329 5327 5326 5324 5322 5320 5318 5316 5314 5313 5313 5312 5311 5308 5305 5302 5299 5297 5296 5293 5291 5287 5284 5281 5279 5277 5275 5273 5271 5269 5266 5264 5262 5260 5257 5255 5253 5251 5249 5247 5246 5244 5242 5241 5239 5237 5236 5235 5233 5232 5231 5230 5230 5229 5228 5228 5227 5227 5227 5227 5227 5227 5227 5227
5365 5363 5361 5359 5357 5356 5354 5353 5351 5349 5347 5346 5345 5343 5341 5340 5338 5336 5334 5332 5331 5329 5327 5326 5324 5321 5320 5318 5316 5314 5312 5311 5311 5310 5309 5306 5303 5300 5297 5295 5293 5291 5288 5285 5282 5279 5276 5274 5272 5270 5268 5266 5264 5261 5259 5256 5254 5252 5250 5248 5246 5245 5243 5241 5240 5238 5237 5235 5234 5232 5231 5230 5229 5228 5227 5226 5225 5225 5224 5224 5223 5223 5223 5223 5223 5223
5362 5360 5358 5356 5355 5353 5351 5350 5348 5346 5345 5344 5342 5341 5339 5337 5336 5334 5332 5331 5329 5327 5326 5324 5322 5320 5318 5316 5314 5311 5310 5309 5308 5307 5306 5304 5301 5298 5295 5293 5291 5289 5286 5283 5280 5277 5274 5272 5270 5268 5266 5263 5261 5258 5256 5254 5251 5249 5247 5246 5244 5242 5241 5239 5237 5236 5235 5233 5232 5231 5229 5228 5226 5226 5224 5223 5222 5221 5221 5220 5220 5220 5219 5219 5219 5219
5359 5357 5355 5353 5352 5350 5349 5347 5346 5344 5343 5341 5340 5338 5337 5335 5334 5332 5331 5329 5327 5326 5325 5323 5321 5319 5316 5314 5312 5309 5307 5306 5306 5305 5303 5301 5299 5296 5293 5291 5289 5286 5284 5281 5277 5275 5272 5270 5268 5266 5263 5261 5258 5256 5253 5251 5249 5247 5245 5243 5241 5240 5239 5237 5236 5234 5233 5231 5230 5229 5227 5226 5225 5223 5222 5221 5220 5219 5218 5217 5216 5216 5216 5216 5216 5215
5356 5354 5352 5351 5349 5348 5346 5345 5343 5341 5340 5339 5337 5336 5334 5333 5331 5330 5328 5327 5326 5324 5323 5321 5320 5318 5315 5313 5310 5307 5305 5304 5303 5302 5300 5299 5296 5294 5291 5289 5287 5285 5282 5278 5275 5272 5270 5268 5266 5263 5261 5258 5256 5253 5251 5249 5246 5245 5243 5241 5240 5238 5236 5235 5234 5232 5231 5229 5228 5226 5225 5224 5223 5221 5220 5219 5217 5216 5215 5214 5214 5213 5212 5212 5212 5212
5353 5351 5350 5348 5347 5345 5344 5342 5340 5339 5337 5336 5335 5334 5332 5331 5329 5328 5326 5325 5323 5322 5321 5320 5318 5316 5314 5311 5309 5306 5303 5301 5300 5299 5298 5296 5294 5291 5289 5287 5285 5282 5280 5277 5273 5270 5268 5266 5263 5261 5258 5256 5253 5251 5248 5246 5244 5242 5241 5239 5238 5236 5235 5233 5232 5231 5229 5228 5226 5225 5223 5222 5221 5219 5218 5216 5215 5214 5212 5211 5211 5210 5209 5209 5208 5208
5351 5349 5347 5346 5344 5342 5341 5339 5338 5336 5335 5333 5332 5331 5330 5329 5327 5326 5324 5323 5321 5320 5319 5317 5316 5314 5312 5309 5307 5304 5302 5300 5298 5297 5296 5294 5292 5290 5287 5285 5283 5281 5278 5275 5271 5268 5266 5264 5261 5259 5256 5253 5251 5248 5246 5244 5242 5241 5239 5238 5236 5235 5233 5232 5231 5229 5228 5226 5225 5223 5222 5221 5219 5218 5216 5215 5213 5211 5210 5209 5208 5207 5206 5205 5205 5204
5349 5347 5345 5343 5342 5340 5339 5337 5336 5334 5332 5331 5330 5328 5327 5326 5325 5324 5322 5321 5320 5318 5316 5315 5314 5312 5310 5308 5305 5303 5300 5299 5297 5296 5294 5292 5290 5288 5285 5283 5281 5279 5276 5273 5269 5266 5264 5262 5260 5257 5254 5251 5249 5246 5244 5242 5241 5239 5238 5236 5235 5234 5232 5231 5229 5228 5226 5225 5223 5222 5221 5219 5218 5216 5215 5213 5211 5210 5208 5207 5206 5205 5203 5202 5202 5201
5346 5345 5343 5341 5340 5338 5336 5335 5333 5332 5330 5329 5327 5326 5325 5324 5323 5321 5320 5319 5317 5316 5314 5313 5311 5310 5308 5306 5304 5301 5299 5297 5296 5294 5292 5291 5288 5286 5283 5281 5279 5276 5274 5271 5267 5264 5261 5259 5257 5255 5252 5250 5247 5245 5243 5241 5239 5238 5236 5235 5234 5232 5231 5229 5228 5226 5225 5223 5222 5221 5219 5218 5216 5215 5213 5211 5210 5208 5207 5205 5204 5202 5201 5200 5199 5198
5345 5343 5341 5339 5338 5336 5334 5333 5331 5330 5328 5326 5325 5324 5322 5321 5320 5319 5317 5316 5315 5313 5312 5311 5309 5307 5306 5304 5302 5300 5297 5295 5294 5292 5291 5289 5286 5284 5281 5279 5277 5275 5272 5270 5266 5262 5259 5257 5255 5253 5250 5248 5246 5244 5242 5240 5238 5236 5235 5234 5232 5231 5229 5228 5226 5225 5223 5221 5220 5218 5217 5216 5214 5213 5211 5210 5208 5206 5205 5203 5202 5201 5199 5198 5197 5196
5343 5341 5339 5337 5336 5334 5332 5331 5329 5328 5326 5325 5323 5321 5320 5319 5317 5316 5315 5314 5313 5311 5310 5308 5306 5305 5303 5302 5301 5299 5296 5294 5292 5290 5289 5287 5285 5282 5280 5277 5275 5272 5270 5268 5265 5262 5258 5255 5253 5251 5249 5246 5244 5242 5241 5239 5237 5236 5234 5233 5231 5230 5228 5226 5225 5223 5221 5220 5218 5216 5215 5214 5212 5211 5209 5208 5206 5205 5203 5201 5200 5199 5197 5196 5195 5194
5341 5339 5337 5336 5334 5332 5330 5329 5327 5326 5324 5323 5321 5320 5318 5316 5315 5314 5313 5311 5310 5309 5307 5306 5305 5303 5301 5300 5298 5297 5295 5293 5291 5289 5287 5285 5283 5281 5278 5276 5273 5271 5268 5266 5264 5261 5258 5254 5251 5249 5247 5245 5243 5241 5240 5238 5236 5235 5234 5232 5231 5229 5227 5226 5224 5222 5220 5218 5216 5215 5213 5212 5211 5209 5207 5206 5205 5203 5201 5200 5198 5197 5196 5194 5193 5192
5339 5337 5336 5334 5332 5331 5329 5327 5326 5324 5323 5321 5320 5318 5316 5315 5313 5312 5311 5309 5308 5307 5305 5304 5302 5301 5299 5298 5296 5294 5292 5291 5289 5287 5285 5283 5281 5279 5276 5274 5271 5269 5266 5264 5261 5259 5257 5254 5250 5247 5246 5244 5242 5240 5239 5237 5236 5235 5233 5232 5230 5229 5227 5225 5222 5221 5219 5217 5215 5214 5212 5211 5209 5207 5206 5204 5203 5201 5200 5198 5196 5195 5193 5192 5191 5190
5337 5336 5334 5332 5331 5329 5327 5326 5324 5322 5321 5320 5318 5316 5315 5313 5311 5310 5308 5307 5306 5304 5303 5301 5300 5299 5297 5296 5294 5292 5290 5288 5286 5285 5283 5281 5280 5277 5275 5273 5270 5267 5265 5262 5259 5257 5255 5252 5249 5247 5244 5242 5241 5239 5238 5236 5235 5234 5232 5231 5230 5228 5226 5223 5221 5219 5217 5215 5214 5212 5211 5209 5207 5206 5204 5202 5201 5200 5198 5196 5195 5193 5191 5190 5189 5188
5336 5334 5332 5331 5329 5327 5326 5324 5322 5321 5319 5318 5316 5315 5313 5311 5310 5308 5306 5305 5303 5302 5300 5299 5297 5296 5295 5294 5292 5290 5288 5286 5285 5283 5281 5280 5277 5275 5273 5271 5269 5266 5263 5261 5258 5255 5252 5250 5248 5246 5244 5242 5240 5238 5237 5236 5234 5232 5231 5229 5228 5226 5224 5221 5219 5217 5216 5214 5212 5211 5209 5207 5206 5204 5202 5201 5199 5198 5196 5195 5193 5191 5189 5188 5186 5185
5334 5332 5331 5329 5328 5326 5324 5323 5321 5319 5317 5316 5314 5312 5311 5309 5307 5306 5304 5302 5301 5299 5298 5296 5295 5293 5292 5291 5290 5288 5287 5285 5283 5281 5279 5277 5276 5273 5271 5269 5267 5265 5262 5259 5256 5254 5251 5249 5247 5245 5243 5241 5239 5237 5236 5234 5233 5231 5229 5228 5226 5224 5221 5220 5218 5216 5214 5213 5211 5209 5207 5206 5204 5202 5200 5199 5197 5196 5194 5192 5191 5189 5187 5185 5183 5181
5332 5331 5329 5328 5326 5325 5323 5321 5319 5317 5316 5314 5312 5310 5308 5307 5305 5303 5301 5300 5298 5297 5295 5293 5292 5291 5289 5288 5287 5286 5285 5283 5281 5279 5277 5276 5274 5272 5270 5267 5265 5263 5261 5258 5256 5253 5251 5248 5246 5244 5242 5241 5239 5237 5236 5234 5232 5231 5228 5226 5224 5222 5220 5218 5216 5215 5213 5212 5210 5208 5206 5205 5203 5201 5199 5197 5196 5194 5192 5191 5189 5186 5184 5182 5180 5178
5330 5329 5327 5326 5324 5322 5321 5319 5317 5316 5314 5312 5310 5308 5306 5304 5303 5301 5299 5297 5296 5294 5293 5291 5289 5287 5286 5285 5284 5283 5282 5281 5279 5277 5275 5273 5272 5270 5268 5266 5264 5261 5259 5257 5254 5252 5250 5247 5245 5243 5242 5240 5239 5237 5236 5234 5232 5230 5228 5226 5223 5221 5219 5217 5216 5214 5213 5211 5210 5208 5206 5204 5202 5201 5199 5197 5195 5193 5191 5189 5187 5184 5182 5180 5177 5175
5328 5327 5325 5324 5322 5320 5319 5317 5315 5313 5312 5310 5308 5306 5304 5302 5300 5298 5297 5295 5293 5292 5290 5288 5287 5285 5283 5282 5281 5280 5279 5278 5276 5275 5273 5271 5270 5268 5266 5264 5262 5260 5258 5256 5253 5251 5249 5247 5245 5243 5241 5240 5238 5237 5236 5234 5232 5230 5227 5225 5223 5221 5219 5217 5215 5214 5212 5211 5209 5207 5206 5204 5202 5200 5198 5196 5194 5192 5190 5188 5185 5183 5180 5178 5175 5173
5326 5325 5323 5321 5320 5318 5316 5315 5313 5311 5309 5307 5306 5304 5302 5300 5298 5296 5294 5292 5291 5289 5288 5286 5284 5282 5281 5280 5278 5277 5276 5275 5274 5273 5271 5269 5268 5266 5265 5263 5261 5258 5256 5254 5252 5250 5248 5246 5244 5243 5241 5240 5238 5236 5235 5233 5231 5229 5227 5225 5222 5221 5219 5217 5215 5213 5212 5211 5209 5207 5206 5204 5202 5200 5198 5196 5194 5192 5190 5187 5185 5182 5179 5177 5174 5171
5324 5323 5321 5319 5318 5316 5314 5313 5311 5309 5307 5305 5304 5302 5300 5298 5296 5294 5292 5290 5288 5287 5285 5283 5282 5280 5278 5277 5276 5275 5274 5273 5272 5271 5269 5267 5266 5264 5263 5261 5259 5257 5255 5253 5251 5249 5247 5245 5244 5242 5241 5240 5238 5236 5235 5232 5230 5228 5226 5224 5222 5220 5219 5217 5215 5213 5212 5210 5209 5207 5206 5204 5202 5200 5198 5196 5194 5191 5189 5186 5184 5181 5179 5176 5173 5170
5322 5321 5319 5318 5316 5314 5312 5310 5309 5307 5305 5303 5301 5300 5298 5296 5294 5292 5290 5288 5286 5285 5283 5281 5280 5278 5276 5275 5274 5273 5272 5271 5270 5269 5267 5266 5264 5263 5261 5260 5258 5256 5254 5252 5250 5248 5246 5245 5243 5241 5240 5239 5238 5236 5234 5231 5229 5227 5225 5223 5221 5220 5218 5217 5215 5213 5212 5210 5209 5207 5206 5204 5202 5200 5198 5196 5193 5191 5188 5186 5183 5181 5178 5175 5172 5168
5321 5319 5317 5316 5314 5312 5310 5308 5306 5305 5303 5301 5300 5298 5296 5294 5292 5291 5289 5287 5285 5283 5281 5280 5278 5276 5275 5273 5271 5270 5270 5269 5268 5267 5266 5264 5263 5261 5260 5258 5256 5255 5253 5251 5249 5247 5246 5244 5242 5241 5240 5239 5238 5236 5234 5231 5228 5226 5224 5222 5221 5220 5218 5217 5216 5214 5212 5211 5209 5208 5206 5204 5202 5200 5198 5195 5193 5190 5188 5185 5183 5180 5177 5174 5171 5167
5319 5317 5316 5314 5312 5311 5309 5306 5305 5303 5301 5300 5298 5296 5294 5292 5291 5289 5287 5285 5284 5282 5280 5278 5277 5275 5273 5271 5270 5269 5267 5266 5266 5265 5264 5262 5261 5260 5258 5257 5255 5254 5252 5250 5248 5246 5245 5243 5242 5241 5239 5238 5237 5236 5233 5231 5228 5226 5224 5222 5220 5219 5217 5216 5216 5214 5212 5211 5209 5208 5206 5204 5202 5200 5198 5195 5193 5191 5188 5185 5183 5180 5177 5174 5170 5166
5318 5316 5314 5312 5311 5309 5307 5305 5303 5301 5300 5298 5296 5295 5292 5291 5289 5287 5286 5284 5282 5280 5279 5277 5275 5274 5272 5270 5269 5267 5266 5265 5264 5263 5262 5261 5260 5258 5257 5256 5254 5253 5251 5250 5248 5246 5244 5242 5241 5240 5239 5238 5237 5235 5233 5230 5228 5226 5224 5222 5220 5219 5217 5216 5215 5214 5212 5211 5209 5208 5206 5205 5202 5200 5198 5196 5194 5191 5189 5186 5183 5180 5177 5173 5170 5166
5316 5315 5313 5311 5309 5308 5306 5304 5302 5300 5299 5297 5295 5293 5291 5289 5287 5286 5284 5282 5281 5279 5277 5276 5274 5272 5271 5269 5267 5266 5265 5263 5262 5261 5260 5259 5258 5257 5256 5254 5253 5251 5250 5249 5247 5246 5244 5242 5241 5239 5238 5237 5236 5235 5232 5230 5228 5226 5224 5222 5221 5219 5218 5216 5215 5214 5212 5211 5209 5208 5206 5205 5203 5201 5198 5196 5194 5192 5189 5186 5184 5180 5177 5173 5169 5165
5315 5313 5311 5310 5308 5306 5305 5303 5301 5299 5297 5296 5294 5292 5290 5288 5286 5285 5283 5281 5279 5277 5276 5274 5272 5271 5269 5268 5266 5265 5263 5262 5261 5260 5259 5257 5256 5256 5254 5253 5251 5250 5249 5247 5246 5245 5243 5242 5241 5239 5237 5236 5235 5234 5232 5230 5228 5226 5224 5222 5221 5219 5218 5217 5215 5214 5212 5211 5210 5208 5207 5205 5203 5201 5199 5197 5195 5192 5190 5187 5184 5181 5177 5174 5170 5166
5313 5312 5310 5308 5307 5305 5304 5302 5300 5298 5296 5295 5293 5291 5289 5287 5286 5284 5282 5280 5278 5276 5275 5273 5271 5270 5268 5266 5265 5264 5262 5261 5260 5259 5257 5256 5256 5254 5253 5251 5250 5249 5248 5246 5245 5244 5242 5241 5240 5239 5237 5236 5235 5234 5232 5230 5228 5226 5224 5223 5221 5220 5218 5217 5216 5214 5213 5211 5210 5209 5207 5206 5204 5201 5199 5197 5195 5193 5191 5188 5185 5182 5178 5175 5171 5166
5312 5311 5309 5307 5306 5304 5302 5301 5299 5297 5296 5293 5291 5290 5288 5286 5285 5283 5281 5279 5277 5276 5274 5272 5270 5268 5266 5265 5264 5262 5261 5260 5259 5258 5256 5256 5255 5253 5252 5251 5249 5248 5247 5246 5245 5243 5242 5241 5240 5238 5237 5236 5235 5234 5232 5230 5228 5226 5224 5223 5221 5220 5219 5217 5216 5215 5213 5212 5211 5210 5208 5206 5204 5202 5200 5198 5196 5194 5192 5189 5186 5183 5180 5176 5172 5168
5311 5310 5308 5306 5305 5303 5301 5300 5298 5296 5295 5293 5291 5289 5287 5285 5284 5282 5280 5278 5276 5275 5273 5271 5269 5267 5266 5264 5262 5261 5260 5259 5258 5256 5256 5255 5253 5252 5251 5250 5248 5247 5246 5245 5244 5242 5241 5240 5239 5238 5237 5236 5235 5234 5232 5231 5229 5226 5225 5223 5221 5220 5219 5217 5216 5215 5214 5213 5211 5210 5209 5207 5206 5204 5202 5200 5198 5195 5192 5190 5187 5184 5181 5178 5174 5171
5310 5309 5307 5305 5304 5302 5301 5299 5297 5296 5294 5292 5290 5288 5286 5284 5282 5281 5279 5277 5275 5273 5271 5270 5268 5266 5265 5263 5261 5260 5259 5257 5256 5255 5254 5253 5252 5251 5250 5249 5248 5246 5246 5244 5243 5242 5241 5240 5239 5238 5237 5236 5235 5234 5232 5231 5229 5227 5225 5223 5222 5221 5219 5218 5217 5216 5215 5213 5212 5211 5210 5208 5207 5205 5203 5201 5199 5196 5194 5191 5189 5186 5183 5180 5177 5173
5309 5307 5306 5304 5303 5301 5299 5298 5296 5294 5293 5291 5289 5287 5285 5283 5281 5280 5278 5276 5274 5272 5271 5269 5267 5265 5264 5262 5261 5259 5258 5256 5255 5254 5253 5252 5251 5250 5249 5248 5247 5246 5245 5243 5242 5241 5240 5239 5239 5238 5237 5236 5235 5234 5233 5231 5230 5227 5226 5224 5222 5221 5220 5218 5217 5216 5216 5215 5213 5212 5211 5209 5208 5206 5204 5202 5200 5197 5195 5193 5190 5187 5185 5182 5179 5176